This is the latest recevied weather packets stored in our database for station/object KQ4OSL. If no packets are shown the sender has not sent any weather packets the latest 10 day(s).
| Time | Temp. | Humidity | Pressure | Rain* | Wind** | Luminosity | Snow |
|---|---|---|---|---|---|---|---|
| 1787874925 | 25° C | 95% | 1016.6 hPa | 0 mm | - | 6 W/m² | - |
| 1787874621 | 25.56° C | 95% | 1016.9 hPa | 0 mm | - | 9 W/m² | - |
| 1787874320 | 25.56° C | 96% | 1016.8 hPa | 0 mm | - | 13 W/m² | - |
| 1787874020 | 25.56° C | 95% | 1016.8 hPa | 0 mm | - | 15 W/m² | - |
| 1787873719 | 26.11° C | 94% | 1016.9 hPa | 0 mm | - | 18 W/m² | - |
| 1787873414 | 26.11° C | 93% | 1016.8 hPa | 0 mm | - | 20 W/m² | - |
| 1787873109 | 26.11° C | 92% | 1016.6 hPa | 0 mm | - | 23 W/m² | - |
| 1787872809 | 26.11° C | 91% | 1016.5 hPa | 0 mm | - | 28 W/m² | - |
| 1787872504 | 26.67° C | 90% | 1016.5 hPa | 0 mm | - | 32 W/m² | - |
| 1787872199 | 26.67° C | 91% | 1016.4 hPa | 0 mm | - | 39 W/m² | - |
| 1787871899 | 26.67° C | 91% | 1016.8 hPa | 0 mm | - | 45 W/m² | - |
| 1787871593 | 26.67° C | 88% | 1016.4 hPa | 0 mm | - | 52 W/m² | - |
| 1787871290 | 26.67° C | 90% | 1016.5 hPa | 0 mm | - | 58 W/m² | - |
| 1787870990 | 26.67° C | 89% | 1016.6 hPa | 0 mm | - | 62 W/m² | - |
| 1787870690 | 26.67° C | 90% | 1016.8 hPa | 0 mm | - | 52 W/m² | - |
| 1787870390 | 27.22° C | 86% | 1016.8 hPa | 0 mm | - | 48 W/m² | - |
| 1787870085 | 27.22° C | 84% | 1016.5 hPa | 0 mm | - | 60 W/m² | - |
| 1787869783 | 27.22° C | 84% | 1016.4 hPa | 0 mm | - | 67 W/m² | - |
| 1787869479 | 27.22° C | 84% | 1016.4 hPa | 0 mm | - | 77 W/m² | - |
| 1787869178 | 27.22° C | 83% | 1016.6 hPa | 0 mm | - | 83 W/m² | - |
| 1787868873 | 27.22° C | 84% | 1016.6 hPa | 0 mm | - | 86 W/m² | - |
| 1787868572 | 27.78° C | 83% | 1016.8 hPa | 0 mm | - | 79 W/m² | - |
| 1787868271 | 27.78° C | 82% | 1016.4 hPa | 0 mm | - | 77 W/m² | - |
| 1787867966 | 27.78° C | 83% | 1016.6 hPa | 0 mm | - | 76 W/m² | - |
| 1787867662 | 27.78° C | 81% | 1016.3 hPa | 0 mm | - | 81 W/m² | - |
* Rain latest hour (hover to see other rain measurements)
** Current wind speed in m/s (hover to see current wind gust speed)